Regional Weather Roundup
Issued by NWS

Home | Current Version | Previous Version | Graphics & Text | Print | Product List | Glossary On
Versions: 1 2 3 4 5 6 7 8 9 10 11 12 13 14 15 16 17 18 19 20 21 22 23 24 25 26 27 28 29 30 31 32 33 34 35 36 37 38 39 40 41 42 43 44 45 46 47 48 49 50
000
ASUS43 KMKX 041010
RWRWI

WISCONSIN REGIONAL WEATHER ROUNDUP
NATIONAL WEATHER SERVICE MILWAUKEE/SULLIVAN WI
400 AM CST WED MAR 04 2015

NOTE: "FAIR" INDICATES FEW OR NO CLOUDS BELOW 12,000 FEET WITH NO
SIGNIFICANT WEATHER AND/OR OBSTRUCTIONS TO VISIBILITY.

WIZ001-002-006>008-014>016-023>028-041100-
NORTHWEST WISCONSIN

CITY           SKY/WX    TMP DP  RH WIND       PRES   REMARKS
SUPERIOR ARPT  CLEAR     -2 -10  67 W8        30.03R WCI -17
ASHLAND        MOCLDY    -1  -9  68 W10       29.97R WCI -17
HAYWARD        CLEAR     -2 -11  65 VRB6      29.97R WCI -14
SIREN          CLEAR     -2  -8  75 W6        30.04R WCI -14
CUMBERLAND     PTCLDY    -4  -9  77 W8        29.99S WCI -19
RICE LAKE      CLEAR     -1  -8  74 W5        30.02R WCI -12
CHETEK         CLEAR      0  -7  73 W6        30.01S WCI -11
LADYSMITH      CLEAR      0  -8  70 W9        29.98R WCI -16
EAU CLAIRE     CLEAR      2  -7  66 W13       30.03R WCI -15
MENOMONIE      CLEAR      3  -6  66 W13       30.05R WCI -14
NEW RICHMOND   CLEAR     -1  -8  73 W9        30.06R WCI -17
OSCEOLA        CLEAR     -1  -8  72 W8        30.10R WCI -15
$$

WIZ003>005-009-010-017-018-041100-
NORTH CENTRAL WISCONSIN

CITY           SKY/WX    TMP DP  RH WIND       PRES   REMARKS
MANITOWISH WTR CLEAR     -1  -8  74 W8        29.85R WCI -16
ARBOR VITAE    CLEAR      2  -6  70 W10G17    29.85R WCI -14
WOODRUFF       CLEAR      2  -6  70 W10G17    29.85R WCI -14
RHINELANDER    CLEAR      1  -7  68 W13       29.84R WCI -17
EAGLE RIVER    FAIR       1  -8  66 W9        29.82S WCI -14
LAND O LAKES   FAIR       2  -5  74 W9G16     29.82R WCI -13
PHILLIPS       CLEAR     -1 -10  66 W3        29.90R
TOMAHAWK       PTCLDY     2  -4  74 W9        29.89R WCI -12
MEDFORD        CLEAR      1  -8  67 W10G17    29.91R WCI -15
MERRILL        CLEAR      5  -4  65 W8G17     29.90R WCI  -8
$$

WIZ029-030-035-036-043>047-041100-
CENTRAL WISCONSIN

CITY           SKY/WX    TMP DP  RH WIND       PRES   REMARKS
WAUSAU         CLEAR      5  -3  69 W15       29.90R WCI -13
MOSINEE        CLEAR      5   0  78 W16G22    29.92R WCI -14
MARSHFIELD     CLEAR      4  -6  63 NW18      29.94R WCI -16
STEVENS POINT  CLEAR      5  -4  65 W10G17    29.93R WCI -10
WAUPACA        FAIR      13   2  62 W13G22    29.94R WCI  -2
WAUTOMA        CLEAR     10   0  64 NW15G22   29.96R WCI  -7
WISC RAPIDS    FAIR       7  -4  60 W14       29.97R WCI -10
CAMP DOUGLAS   CLEAR      8  -1  65 W13       29.99R WCI  -8
$$

WIZ011>013-019>022-031-037>040-048>050-041100-
NORTHEAST WISCONSIN

CITY           SKY/WX    TMP DP  RH WIND       PRES   REMARKS
ANTIGO         FAIR       4  -3  74 NW12      29.85R WCI -12
SHAWANO        CLEAR     14   2  57 NW5       29.90R WCI   7
OCONTO         CLEAR     13   0  55 NW8       29.89R WCI   2
STURGEON BAY   CLEAR     12   1  62 W10       29.88R WCI  -1
GREEN BAY      CLEAR     12   3  67 W7        29.89R WCI   1
MANITOWOC      CLEAR     16   7  67 NW12      29.89R WCI   3
APPLETON       CLEAR     12   3  67 W15       29.91R WCI  -4
CLINTONVILLE   CLEAR     14   3  62 NW13G20   29.90R WCI   0
OSHKOSH        CLEAR     13   4  67 W16       29.92R WCI  -3
$$

WIZ032>034-041-042-053>061-041100-
SOUTHWEST WISCONSIN

CITY           SKY/WX    TMP DP  RH WIND       PRES   REMARKS
LA CROSSE      PTCLDY     9  -1  64 NW15      30.06R WCI  -8
SPARTA         CLEAR      9  -1  65 NW6       30.03R WCI  -1
VIROQUA        PTCLDY     6  -1  73 NW13G18   29.98R WCI -10
BOSCOBEL       CLEAR     11  -1  58 NW6       30.05R WCI   1
PRAIRIE DU CHI FAIR      10  -1  63 NW15      30.07R WCI  -7
PLATTEVILLE    MOCLDY    11   5  74 W12       30.01R WCI  -3
$$

WIZ056-057-062-063-064-067-068-041100-
SOUTH CENTRAL WISCONSIN

CITY           SKY/WX    TMP DP  RH WIND       PRES   REMARKS
REEDSBURG      CLEAR     10   3  72 NW12      29.99R WCI  -4
BARABOO/DELLS  CLEAR     11   2  67 NW9       29.97R WCI  -2
LONE ROCK      CLEAR     12   1  61 W14       30.02R WCI  -3
MINERAL POINT  PTCLDY    12   5  73 NW8       29.97R WCI   1
MADISON        PTCLDY    14   5  67 NW8       29.96R WCI   3
MIDDLETON      PTCLDY    15   6  67 NW10      29.97R WCI   2
WATERTOWN      PTCLDY    16   9  72 NW10      29.94R WCI   4
MONROE         PTCLDY    14   9  79 W10       29.96R WCI   1
JANESVILLE     PTCLDY    18  10  73 NW13      29.95R WCI   4
$$

WIZ051-052-058>065-066-070>072-041100-
SOUTHEAST WISCONSIN

CITY           SKY/WX    TMP DP  RH WIND       PRES   REMARKS
MILWAUKEE      CLEAR     21   9  59 NW13      29.91R WCI   9
WAUKESHA       CLEAR     18   9  68 NW16G22   29.93R WCI   3
MILWAUKEE/TIMM CLEAR     19   9  63 W12       29.92R WCI   7
RACINE         PTCLDY    23  13  65 NW9       29.92R WCI  13
BURLINGTON     PTCLDY    16  10  77 NW13      29.93R WCI   2
KENOSHA        PTCLDY    21  15  78 W6        29.91R WCI  13
FOND DU LAC    CLEAR     14   4  64 NW14      29.92R WCI  -1
SHEBOYGAN      CLEAR     17   6  62 NW14G20   29.90R WCI   3
WEST BEND      CLEAR     18   7  62 W10G18    29.90R WCI   6
JUNEAU         CLEAR     13   3  65 W8G18     29.94R WCI   2
$$

LSZ147-162-041100-
LAKE SUPERIOR

STATION/POSITION TIME  TEMP    WIND        PRES    WAVE
                       AIR SEA DIR/SP/G            HT/PER
                 (UTC) (F)     (DEG/KT/KT) (MB)    (FT/S)
DEVILS ISLAND    1000    4     280/ 24/ 27 1015.7R
PORT WING        0940    4     290/ 18/ 24 1015.6R
SAXON HARBOR     0900    4     260/  3/ 14 1014.6R
$$

LMZ867-665-643>646-041100-
LAKE MICHIGAN

STATION/POSITION TIME  TEMP    WIND        PRES    WAVE
                       AIR SEA DIR/SP/G            HT/PER
                 (UTC) (F)     (DEG/KT/KT) (MB)    (FT/S)
NORTHPORT PIER   0904   17     290/  9/ 15 1009.8R
SISTER BAY       0913   13     290/ 15/ 18   N/A
KEWAUNEE LAKESHO 0900   19     300/ 10/ 18 1010.0R
SHEBOYGAN LAKESH 1000   18     290/ 14/ 18 1014.0R
PORT WASHINGTON  0900   22     300/  7/ 14 1012.9
MILWAUKEE LAKESH 0900   24     310/ 11/ 17   N/A
KENOSHA   LAKESH 1000   24     300/  8/ 11 1013.2R
$$

TC  - TEMPERATURE IN CELSIUS
VSB - VISIBILITY IN STATUTE MILES
WCI - WIND CHILL INDEX
HX  - HEAT INDEX



USA.gov is the U.S. government's official web portal to all federal, state and local government web resources and services.